Home   Weather   Kalamaria   Past weeks

Flag for Greece Past Weather in Kalamaria, Greece — Yesterday and Last 2 Weeks

Now
95 °F

Passing clouds.


Feels Like: 91 °F
Forecast: 71 / 90 °F
Wind: 12 mph from South

Location: Thessaloniki Airport

Current Time: Aug 19, 2017 at 6:10:44 pm

Latest Report: Aug 19, 2017 at 5:20 pm


Visibility: N/A

Pressure: 29.92 "Hg

Humidity: 14%

Dew Point: 39 °F

Location of KalamariaLocation

Past Weather in Kalamaria — Graph

°F

Kalamaria Temperature Yesterday

Maximum temperature yesterday: 95 °F (at 4:50 pm)
Minimum temperature yesterday: 72 °F (at 6:50 am)
Average temperature yesterday: 83 °F

High & Low Weather Summary for the Past Weeks

 TemperatureHumidityPressure
High100 °F (Aug 6, 3:50 pm)69% (Aug 11, 6:20 am)30.04 "Hg (Aug 11, 6:20 am)
Low68 °F (Aug 5, 6:50 am)15% (Aug 12, 8:50 pm)29.65 "Hg (Aug 13, 12:50 am)
Average84 °F43%29.90 "Hg
* Reported Aug 4 4:20 pm — Aug 19 4:20 pm, Kalamaria. Weather by CustomWeather, © 2017

Note: Actual official high and low records may vary slightly from our data, if they occured in-between our weather recording intervals... More about our weather records

Advertising

Kalamaria Weather History for the Previous 24 Hours

Scroll right to see more
 ConditionsComfort  
Time TempWeatherWind HumidityBarometerVisibility
4:20 pm
Sat, Aug 19
95 °FPassing clouds.16 mph15%29.92 "HgN/A
3:50 pm93 °FPassing clouds.8 mph24%29.92 "HgN/A
3:20 pm91 °FPassing clouds.12 mph38%29.92 "HgN/A
2:50 pm91 °FPassing clouds.13 mph34%29.95 "HgN/A
2:20 pm91 °FPassing clouds.12 mph34%29.95 "HgN/A
1:50 pm90 °FPassing clouds.10 mph38%29.95 "HgN/A
1:20 pm88 °FPassing clouds.9 mph40%29.98 "HgN/A
12:50 pm86 °FSunny.7 mph46%29.98 "Hg10 mi
12:20 pm84 °FSunny.7 mph51%29.98 "Hg10 mi
11:50 am84 °FSunny.7 mph43%29.98 "Hg10 mi
11:20 am82 °FSunny.7 mph48%30.01 "Hg10 mi
10:20 am81 °FPassing clouds.5 mph54%30.01 "HgN/A
9:50 am81 °FPassing clouds.5 mph54%30.01 "HgN/A
9:20 am79 °FPassing clouds.2 mph51%29.98 "HgN/A
8:50 am77 °FPassing clouds.2 mph39%29.98 "HgN/A
8:20 am73 °FPassing clouds.3 mph44%29.98 "HgN/A
7:50 am72 °FPassing clouds.5 mph47%29.98 "HgN/A
7:20 am70 °FPassing clouds.5 mph53%29.98 "HgN/A
6:50 am68 °FScattered clouds.5 mph60%29.98 "HgN/A
6:20 am68 °FPassing clouds.No wind60%29.98 "HgN/A
5:50 am73 °FPassing clouds.5 mph53%29.95 "HgN/A
5:20 am72 °FPassing clouds.2 mph44%29.95 "HgN/A
4:50 am72 °FPassing clouds.No wind44%29.95 "HgN/A
4:20 am70 °FPassing clouds.2 mph46%29.95 "HgN/A
3:50 am73 °FPassing clouds.2 mph41%29.95 "HgN/A
3:20 am70 °FPassing clouds.6 mph46%29.95 "HgN/A
2:50 am72 °FPassing clouds.5 mph41%29.95 "HgN/A
2:20 am72 °FPassing clouds.6 mph44%29.95 "HgN/A
1:50 am73 °FPassing clouds.3 mph38%29.95 "HgN/A
1:20 am73 °FPassing clouds.6 mph38%29.95 "HgN/A
12:50 am75 °FPassing clouds.6 mph36%29.95 "HgN/A
12:20 am75 °FPassing clouds.6 mph36%29.95 "HgN/A
11:50 pm
Fri, Aug 18
75 °FPassing clouds.6 mph36%29.95 "HgN/A
11:20 pm77 °FPassing clouds.5 mph32%29.95 "HgN/A
10:50 pm77 °FPassing clouds.7 mph32%29.95 "HgN/A
10:20 pm77 °FPassing clouds.5 mph34%29.95 "HgN/A
9:50 pm81 °FPassing clouds.6 mph28%29.95 "HgN/A
9:20 pm81 °FPassing clouds.6 mph30%29.95 "HgN/A
8:50 pm82 °FPassing clouds.6 mph26%29.95 "HgN/A
8:20 pm86 °FPassing clouds.3 mph22%29.95 "HgN/A
7:50 pm90 °FPassing clouds.7 mph18%29.92 "HgN/A
7:20 pm91 °FPassing clouds.8 mph20%29.92 "HgN/A
6:50 pm91 °FPassing clouds.9 mph18%29.92 "HgN/A
6:20 pm93 °FPassing clouds.8 mph16%29.92 "HgN/A
Weather by CustomWeather, © 2017

See weather overviewHow to use our weather pages